{"data":{"norad_id":62668,"epoch":"2026-09-22T20:10:31.842048Z","epoch_age_seconds":117357,"freshness":"FRESH","line1":"1 62668U 25009BM  26265.84064632  .00002380  00000+0  10449-3 0  9991","line2":"2 62668  97.3897 343.2024 0004479  18.0378 342.1017 15.22896522151234","mean_motion":15.22896522,"eccentricity":0.0004479,"inclination_deg":97.3897,"raan_deg":343.2024,"arg_perigee_deg":18.0378,"mean_anomaly_deg":342.1017,"bstar":0.00010449,"rev_number":15123,"period_min":94.556654322703,"perigee_km":494.02962000224,"apogee_km":500.1884654073,"semimajor_km":6875.2460427048,"source":"CELESTRAK","updated_at":"2026-09-23T09:00:21.544504Z"}}